When you browse on this site, cookies collect data to enhance your experience and personalize the content and advertising you see.
Visit our Privacy Policy to learn more. By continuing to use the site, you agree to this use of cookies and data.
  • In Latvia
  • List of Countries
  • For 7 days
  • Water Temperature
  • Weather Map
  • Weather Widgets
  • user-avatar
    Login

    Hourly Weather Naru

    Today, 28 January, Tuesday

    Time Temperature Precipitation Wind Pressure Humidity
    00:00 +18°C° 0 mm 1 mps 743 mmHg 89%
    01:00 +19°C° 0 mm 1 mps 743 mmHg 88%
    02:00 +19°C° 0.6 mm 1 mps 742 mmHg 91%
    03:00 +19°C° 0.6 mm 1 mps 742 mmHg 93%
    04:00 +18°C° 0.6 mm 1 mps 742 mmHg 95%
    05:00 +18°C° 0.2 mm 1 mps 743 mmHg 95%
    06:00 +18°C° 0.2 mm 1 mps 743 mmHg 96%
    07:00 +18°C° 0 mm 1 mps 744 mmHg 95%
    08:00 +19°C° 0 mm 1 mps 744 mmHg 89%
    09:00 +20°C° 0 mm 2 mps 745 mmHg 83%
    10:00 +21°C° 0 mm 2 mps 745 mmHg 78%
    11:00 +24°C° 0 mm 2 mps 745 mmHg 71%
    12:00 +26°C° 0 mm 2 mps 744 mmHg 63%
    13:00 +23°C° 0 mm 2 mps 744 mmHg 72%
    14:00 +24°C° 0 mm 2 mps 744 mmHg 68%
    15:00 +25°C° 0 mm 2 mps 743 mmHg 64%
    16:00 +26°C° 0 mm 2 mps 743 mmHg 59%
    17:00 +24°C° 0 mm 2 mps 743 mmHg 66%
    18:00 +21°C° 0 mm 2 mps 744 mmHg 74%
    19:00 +19°C° 0 mm 2 mps 744 mmHg 81%
    20:00 +19°C° 0 mm 2 mps 744 mmHg 83%
    21:00 +18°C° 0 mm 2 mps 745 mmHg 86%
    22:00 +18°C° 0 mm 2 mps 745 mmHg 88%
    23:00 +18°C° 0 mm 2 mps 745 mmHg 88%

    Tomorrow, 29 January, Wednesday

    Time Temperature Precipitation Wind Pressure Humidity
    00:00 +18°C° 0 mm 2 mps 745 mmHg 89%
    01:00 +18°C° 0 mm 2 mps 745 mmHg 89%
    02:00 +18°C° 0 mm 2 mps 745 mmHg 88%
    03:00 +18°C° 0 mm 2 mps 744 mmHg 87%
    04:00 +18°C° 0 mm 2 mps 744 mmHg 86%
    05:00 +18°C° 0 mm 2 mps 745 mmHg 84%
    06:00 +19°C° 0 mm 2 mps 745 mmHg 82%
    07:00 +19°C° 0 mm 2 mps 746 mmHg 80%
    08:00 +21°C° 0 mm 2 mps 746 mmHg 72%
    09:00 +24°C° 0 mm 3 mps 747 mmHg 63%
    10:00 +26°C° 0 mm 3 mps 747 mmHg 54%
    11:00 +27°C° 0 mm 3 mps 747 mmHg 52%
    12:00 +28°C° 0 mm 3 mps 746 mmHg 49%
    13:00 +28°C° 0 mm 4 mps 746 mmHg 47%
    14:00 +27°C° 0 mm 4 mps 746 mmHg 50%
    15:00 +26°C° 0 mm 4 mps 745 mmHg 53%
    16:00 +25°C° 0 mm 4 mps 745 mmHg 56%
    17:00 +22°C° 0 mm 4 mps 745 mmHg 63%
    18:00 +21°C° 0 mm 3 mps 745 mmHg 69%
    19:00 +19°C° 0 mm 3 mps 746 mmHg 75%
    20:00 +18°C° 0 mm 3 mps 746 mmHg 77%
    21:00 +18°C° 0 mm 3 mps 746 mmHg 78%
    22:00 +17°C° 0 mm 3 mps 747 mmHg 79%
    23:00 +17°C° 0 mm 3 mps 747 mmHg 79%

    Day after tomorrow, 30 January, Thursday

    Time Temperature Precipitation Wind Pressure Humidity
    00:00 +17°C° 0 mm 3 mps 746 mmHg 80%
    01:00 +17°C° 0 mm 3 mps 746 mmHg 80%
    02:00 +17°C° 0 mm 3 mps 746 mmHg 80%
    03:00 +17°C° 0 mm 3 mps 746 mmHg 80%
    04:00 +16°C° 0 mm 3 mps 745 mmHg 80%
    05:00 +17°C° 0 mm 3 mps 746 mmHg 79%
    06:00 +17°C° 0 mm 3 mps 746 mmHg 78%
    07:00 +17°C° 0 mm 3 mps 747 mmHg 77%
    08:00 +19°C° 0 mm 3 mps 747 mmHg 69%
    09:00 +21°C° 0 mm 4 mps 748 mmHg 60%
    10:00 +23°C° 0 mm 4 mps 748 mmHg 52%
    11:00 +25°C° 0 mm 4 mps 747 mmHg 49%
    12:00 +26°C° 0 mm 4 mps 747 mmHg 47%
    13:00 +27°C° 0 mm 4 mps 746 mmHg 44%
    14:00 +26°C° 0 mm 4 mps 746 mmHg 46%
    15:00 +26°C° 0 mm 4 mps 745 mmHg 49%
    16:00 +25°C° 0 mm 4 mps 745 mmHg 51%
    17:00 +22°C° 0 mm 4 mps 745 mmHg 58%
    18:00 +20°C° 0 mm 4 mps 745 mmHg 66%
    19:00 +18°C° 0 mm 3 mps 746 mmHg 73%
    20:00 +18°C° 0 mm 3 mps 746 mmHg 75%
    21:00 +17°C° 0 mm 3 mps 746 mmHg 77%
    22:00 +17°C° 0 mm 3 mps 747 mmHg 79%
    23:00 +17°C° 0 mm 3 mps 747 mmHg 80%

    31 January, Friday

    Time Temperature Precipitation Wind Pressure Humidity
    00:00 +17°C° 0 mm 2 mps 746 mmHg 81%
    01:00 +16°C° 0 mm 2 mps 746 mmHg 82%
    02:00 +16°C° 0 mm 2 mps 746 mmHg 83%
    03:00 +16°C° 0 mm 2 mps 745 mmHg 84%
    04:00 +16°C° 0 mm 2 mps 745 mmHg 86%
    05:00 +16°C° 0 mm 2 mps 745 mmHg 86%
    06:00 +16°C° 0 mm 2 mps 746 mmHg 86%
    07:00 +16°C° 0 mm 2 mps 746 mmHg 86%
    08:00 +19°C° 0 mm 2 mps 747 mmHg 75%
    09:00 +23°C° 0 mm 2 mps 747 mmHg 64%
    10:00 +25°C° 0 mm 3 mps 747 mmHg 53%
    11:00 +27°C° 0 mm 3 mps 747 mmHg 50%
    12:00 +28°C° 0 mm 3 mps 746 mmHg 47%
    13:00 +29°C° 0 mm 3 mps 746 mmHg 43%
    14:00 +28°C° 0 mm 3 mps 745 mmHg 46%
    15:00 +27°C° 0 mm 4 mps 745 mmHg 49%
    16:00 +26°C° 0 mm 4 mps 744 mmHg 52%
    17:00 +24°C° 0 mm 3 mps 744 mmHg 60%
    18:00 +21°C° 0 mm 3 mps 745 mmHg 68%
    19:00 +19°C° 0 mm 3 mps 745 mmHg 76%
    20:00 +19°C° 0 mm 2 mps 745 mmHg 80%
    21:00 +18°C° 0 mm 2 mps 746 mmHg 84%
    22:00 +17°C° 0 mm 2 mps 746 mmHg 87%
    23:00 +17°C° 0 mm 2 mps 746 mmHg 89%

    1 February, Saturday

    Time Temperature Precipitation Wind Pressure Humidity
    00:00 +16°C° 0 mm 1 mps 745 mmHg 91%
    01:00 +16°C° 0 mm 1 mps 745 mmHg 93%
    02:00 +16°C° 0 mm 1 mps 745 mmHg 94%
    03:00 +16°C° 0 mm 1 mps 745 mmHg 95%
    04:00 +16°C° 0 mm 1 mps 744 mmHg 96%
    05:00 +16°C° 0 mm 1 mps 745 mmHg 96%
    06:00 +16°C° 0 mm 1 mps 745 mmHg 96%
    07:00 +16°C° 0 mm 1 mps 746 mmHg 96%
    08:00 +21°C° 0 mm 1 mps 746 mmHg 81%
    09:00 +24°C° 0 mm 1 mps 746 mmHg 66%
    10:00 +27°C° 0 mm 2 mps 747 mmHg 51%
    11:00 +29°C° 0 mm 2 mps 746 mmHg 46%
    12:00 +31°C° 0 mm 2 mps 745 mmHg 40%
    13:00 +34°C° 0 mm 2 mps 745 mmHg 34%
    14:00 +32°C° 0 mm 2 mps 744 mmHg 36%
    15:00 +32°C° 0 mm 2 mps 744 mmHg 38%
    16:00 +31°C° 0 mm 3 mps 743 mmHg 40%
    17:00 +28°C° 0 mm 2 mps 743 mmHg 52%
    18:00 +25°C° 0 mm 2 mps 744 mmHg 64%
    19:00 +21°C° 0 mm 2 mps 744 mmHg 76%
    20:00 +21°C° 0 mm 1 mps 744 mmHg 82%
    21:00 +20°C° 0 mm 1 mps 745 mmHg 89%
    22:00 +19°C° 0 mm 1 mps 745 mmHg 95%
    23:00 +18°C° 0 mm 1 mps 745 mmHg 96%

    2 February, Sunday

    Time Temperature Precipitation Wind Pressure Humidity
    00:00 +18°C° 0 mm 1 mps 744 mmHg 97%
    01:00 +16°C° 0 mm 1 mps 744 mmHg 98%
    02:00 +16°C° 0 mm 1 mps 744 mmHg 98%
    03:00 +16°C° 0 mm 1 mps 744 mmHg 98%
    04:00 +16°C° 0 mm 1 mps 744 mmHg 98%
    05:00 +16°C° 0 mm 1 mps 744 mmHg 98%
    06:00 +16°C° 0 mm 1 mps 745 mmHg 97%
    07:00 +16°C° 0 mm 1 mps 745 mmHg 97%
    08:00 +21°C° 0 mm 1 mps 745 mmHg 80%
    09:00 +25°C° 0 mm 1 mps 746 mmHg 63%
    10:00 +29°C° 0 mm 1 mps 746 mmHg 46%
    11:00 +32°C° 0 mm 1 mps 746 mmHg 39%
    12:00 +32°C° 0 mm 0 mps 745 mmHg 32%
    13:00 +35°C° 0 mm 0 mps 744 mmHg 24%
    14:00 +34°C° 0 mm 0 mps 744 mmHg 25%
    15:00 +35°C° 0 mm 1 mps 743 mmHg 26%
    16:00 +34°C° 0 mm 1 mps 743 mmHg 26%
    17:00 +31°C° 0 mm 1 mps 743 mmHg 39%
    18:00 +28°C° 0 mm 1 mps 743 mmHg 52%
    19:00 +24°C° 0 mm 1 mps 743 mmHg 65%
    20:00 +23°C° 0 mm 1 mps 743 mmHg 74%
    21:00 +21°C° 0 mm 1 mps 743 mmHg 82%
    22:00 +20°C° 0 mm 1 mps 744 mmHg 91%
    23:00 +19°C° 0 mm 1 mps 743 mmHg 93%
    Show more